Location: Bremen
(53.0793°N, 8.8017°E)
Time: 12:51:52
(UTC+02:00)

Transit 2A Rocket - Pass Details

Date: 27 June 2024
Orbit: 582 x 910 km, 66.7° (Epoch: 19 July)

Event Time Altitude Azimuth Distance (km) Brightness Sun altitude
Rises 03:02:23 0° 316° (NW) 3,448 8.7 -10.9°
Reaches altitude 10° 03:05:03 10° 324° (NW) 2,544 8.1 -10.8°
Maximum altitude 03:10:32 37° 31° (NNE) 1,387 7.1 -10.4°
Drops below altitude 10° 03:16:09 10° 98° (E) 2,600 8.0 -10.1°
Sets 03:18:53 0° 106° (ESE) 3,532 8.6 -9.9°
